Location: Casco Millpond
(44.5581°N, 87.6111°W)
Time: 02:20:51
(UTC+00:00)

ISS - Visible Passes

Search period start: 13 March 2026 00:00
Search period end: 23 March 2026 00:00
Orbit: 415 x 426 km, 51.6° (Epoch: 12 March)

Date Brightness Start Highest point End Pass type
(mag) Time Alt. Az. Time Alt. Az. Time Alt. Az.
13 Mar -3.6 01:43:37 10° WSW 01:47:01 72° NNW 01:47:02 72° NNW visible
14 Mar -3.8 00:56:32 10° SW 00:59:55 75° SSE 01:02:19 18° ENE visible
14 Mar -1.0 02:33:57 10° WNW 02:35:20 19° WNW 02:35:20 19° WNW visible
15 Mar -2.5 01:46:35 10° W 01:49:46 37° NNW 01:50:27 33° N visible
16 Mar -2.9 00:59:14 10° W 01:02:33 49° NNW 01:05:28 13° NE visible
16 Mar -0.9 02:37:04 10° WNW 02:38:28 18° NW 02:38:28 18° NW visible
17 Mar -2.0 01:49:40 10° WNW 01:52:36 26° N 01:53:21 24° NNE visible
18 Mar -2.1 01:02:14 10° WNW 01:05:17 30° NNW 01:08:11 11° NE visible
18 Mar -0.9 02:39:54 10° NW 02:41:10 18° NW 02:41:10 18° NW visible
19 Mar -1.9 01:52:35 10° NW 01:55:26 24° N 01:55:55 23° NNE visible
20 Mar -1.9 01:05:11 10° WNW 01:08:02 24° N 01:10:38 11° NE visible
20 Mar -1.0 02:42:23 10° NW 02:43:37 19° NW 02:43:37 19° NW visible
21 Mar -2.3 01:55:09 10° NW 01:58:09 28° NNE 01:58:17 28° NNE visible
22 Mar -2.0 01:07:51 10° NW 01:10:45 25° N 01:12:57 14° ENE visible
22 Mar -1.1 02:44:40 10° NW 02:45:56 21° NW 02:45:56 21° NW visible
